Regional Weather Roundup
Issued by NWS Northern Indiana

Home | Current Version | Previous Version | Text Only | Print | Product List | Glossary On
Versions: 1 2 3 4 5 6 7 8 9 10 11 12 13 14 15 16 17 18 19 20 21 22 23 24 25 26 27 28 29 30 31 32 33 34 35 36 37 38 39 40 41 42 43 44 45 46 47 48 49 50
000
ASUS43 KIWX 311510
RWRIWX

KIWX WEATHER ROUNDUP
NATIONAL WEATHER SERVICE NORTHERN INDIANA
1100 AM EDT FRI JUL 31 2015

NOTE: "FAIR" INDICATES FEW OR NO CLOUDS BELOW 12,000 FEET WITH NO
SIGNIFICANT WEATHER AND/OR OBSTRUCTIONS TO VISIBILITY.

* THESE STATIONS ARE NOT UNDER NWS QUALITY CONTROL. THEY ALSO MAY NOT
  REPORT WEATHER SUCH AS PRECIPITATION OR FOG.

INZ001>027-311600-
NORTHERN INDIANA

CITY           SKY/WX    TMP DP  RH WIND       PRES   REMARKS
GARY*          MOSUNNY   79  64  61 SW7       30.01F
VALPARAISO     CLOUDY    78  62  57 W10       30.03F
MICHIGAN CITY* CLOUDY    79  61  53 SW8       30.00F
LAPORTE*       CLOUDY    77  62  59 W6        30.02F
KNOX*          CLOUDY    77  61  57 W9        30.03R
SOUTH BEND     CLOUDY    80  61  52 W12       30.02F
ELKHART*       PTSUNNY   81  63  54 W9        30.01F
GOSHEN         SUNNY     80  64  58 W15       30.01F
MONTICELLO*    SUNNY     79  66  64 W6        30.04F
LOGANSPORT*    SUNNY     79  59  50 W6        30.06S
ROCHESTER*     SUNNY     81  64  57 W7        30.04F
WARSAW*        SUNNY     79  63  57 W9        30.02F
ANGOLA*        SUNNY     81  66  61 W8        30.00F
FORT WAYNE     SUNNY     80  62  54 W8        30.03F
HUNTINGTON*    SUNNY     79  63  58 W6        30.03S
PERU/GRISSOM   SUNNY     79  65  62 W8        30.04F
MARION*        SUNNY     78  63  61 NW5       30.05F

$$
INZ028>050-311600-
CENTRAL INDIANA

CITY           SKY/WX    TMP DP  RH WIND       PRES   REMARKS
LAFAYETTE      SUNNY     79  66  64 VRB5      30.05F
KOKOMO*        SUNNY     81  64  57 W9        30.05F
MUNCIE*        SUNNY     77  63  61 NW8       30.05F
INDIANAPOLIS   SUNNY     82  59  45 VRB6      30.06F

$$
MIZ043>046-050>051-056>058-064>065-071>073-077>080-311600-
SOUTHWEST LOWER MICHIGAN

CITY           SKY/WX    TMP DP  RH WIND       PRES   REMARKS
BATTLE CREEK   SUNNY     80  62  54 W9        29.98S
BENTON HARBOR  PTSUNNY   78  63  59 W15G23    29.99F
COLDWATER*     SUNNY     78  62  57 W10       29.98F
HILLSDALE*     SUNNY     80  60  51 W9G16     29.99F
HOLLAND        SUNNY     78  62  57 W12       29.97S
GRAND RAPIDS   MOSUNNY   81  60  48 W15       29.94F
KALAMAZOO      MOSUNNY   80  62  54 W9        29.98F
STURGIS*       SUNNY     79  64  61 W12       29.99F
THREE RIVERS*  FAIR      81  61  51 W8        29.99F

$$
OHZ001>008-015>018-024>025-311600-
NORTHWEST OHIO

CITY           SKY/WX    TMP DP  RH WIND       PRES   REMARKS
WAUSEON*       FAIR      81  64  57 W10       29.99F
DEFIANCE       SUNNY     82  61  48 SW7       30.00F
FINDLAY        SUNNY     79  65  62 W10       30.00F
TOLEDO EXPRESS SUNNY     79  61  53 W9        29.97F
TOLEDO METCALF SUNNY     81  60  48 W9        29.98F
LIMA           SUNNY     78  62  57 W7        30.03S

$$
AND FOR LAKE MICHIGAN COASTAL AND OPEN LAKE BUOY OBSERVATIONS

STATION/POSITION TEMP    WIND        PRES    VSBY  WAVE
                 AIR SEA DIR/SP/G                  HT/PER
                 (F)     (DEG/KT/KT) (MB)    (MI)  (FT/S)
CALUMET HARBOR    73     210/  5/  9   N/A
MICHIGAN CITY     74     220/ 15/ 16   N/A
BURNS HARBOR      75     250/ 12/ 13 1017.3S
SAINT JOSEPH      76     210/ 13/ 16 1015.6F
4 MI NW BRIDGMAN  73 74  270/ 10/ 12   N/A           3/ 4
MICHIGAN CITY     75 73  250/ 12/ 14   N/A           2/ 3

$$
&&


USA.gov is the U.S. government's official web portal to all federal, state and local government web resources and services.